[[{"header":{"parameterUnit":"m.s-1","parameterCategory":1,"la1":30.2991,"la2":30.254,"lo1":-89.0895,"lo2":-89.0444,"dy":0.0017,"dx":0.0017,"nx":28,"ny":28,"refTime":"2025-09-12T21:00:00:Z","depth":0,"parameterNumber":2,"parameterNumberName":"U-component_of_WINDS"},"data":[0,0,0,0,0,0,0,0,0,0,0,0,0,0,0,0,0,0,0,0,0,0,0,0,0,0,0,0,0,0,0,0,0,0,0,0,0,0,0,0,0,0,0,0,0,0,0,0,0,0,0,0,0,0,0,0,0,0,-0.5403,-0.5404,0,-0.5439,-0.5439,-0.5439,-0.5429,-0.5428,-0.5427,-0.5427,-0.5464,-0.5465,-0.5467,0,0,0,0,0,0,0,0,0,0,0,0,0,-0.5327,-0.5329,-0.5403,-0.5404,-0.5404,-0.5438,-0.5439,-0.5439,-0.5429,-0.5428,-0.5427,-0.5426,-0.5463,-0.5465,-0.5467,0,0,0,0,0,0,0,0,0,0,0,0,0,-0.5361,-0.5329,-0.5403,-0.5403,-0.5403,-0.5438,-0.5439,-0.544,-0.5429,-0.5428,-0.5427,-0.5426,-0.5463,-0.5465,-0.5467,-0.5505,0,0,-0.5475,-0.5476,0,0,0,0,0,0,0,0,-0.5359,-0.5364,-0.5403,-0.5403,-0.5403,-0.5428,-0.5426,-0.5461,-0.543,-0.5419,-0.5427,-0.5426,-0.5453,-0.5456,-0.5465,-0.5507,-0.5508,-0.5475,-0.5477,-0.5478,-0.5479,0,0,0,0,0,0,0,-0.5357,-0.5362,-0.5417,-0.5403,-0.5404,-0.5401,-0.5405,-0.5432,-0.5442,-0.542,-0.542,-0.5424,-0.5453,-0.5463,-0.5466,-0.5509,-0.5475,-0.5477,-0.5479,-0.548,-0.5584,-0.5585,0,0,0,0,0,0,-0.5354,-0.5361,-0.5416,-0.5418,-0.5378,-0.5404,-0.5408,-0.5421,-0.5442,-0.5444,-0.5425,-0.5423,-0.5459,-0.5463,-0.5467,-0.5513,-0.5478,-0.548,-0.5482,-0.5582,-0.5584,-0.5585,0,0,0,0,0,0,-0.5353,-0.5359,-0.5415,-0.5389,-0.5396,-0.5406,-0.5422,-0.5423,-0.5433,-0.5445,-0.5447,-0.5433,-0.5458,-0.5464,-0.5496,-0.5515,-0.5481,-0.5484,-0.5581,-0.5583,-0.5585,-0.5605,0,0,0,0,0,0,-0.535,-0.5359,-0.5373,-0.539,-0.5397,-0.5442,-0.5423,-0.5424,-0.5437,-0.5435,-0.5453,-0.5455,-0.5458,-0.5492,-0.5498,-0.5517,-0.5486,-0.5579,-0.5582,-0.5584,-0.5603,-0.5608,-0.5612,0,0,0,0,0,-0.5348,-0.5377,-0.5374,-0.538,-0.5415,-0.5444,-0.5448,-0.545,-0.5438,-0.5453,-0.5461,-0.5455,-0.5511,-0.5495,-0.5502,-0.5522,-0.5578,-0.5581,-0.5584,-0.5601,-0.5607,-0.5612,0,0,0,0,0,0,-0.5363,-0.538,-0.5376,-0.5411,-0.5426,-0.5442,-0.546,-0.5456,-0.5475,-0.5472,-0.5474,-0.5479,-0.5512,-0.552,-0.5502,-0.556,-0.5543,-0.5547,-0.5554,-0.5559,-0.5563,-0.5562,-0.5488,0,0,0,0,0,-0.537,-0.5391,-0.5405,-0.5435,-0.5443,-0.545,-0.5462,-0.5463,-0.5478,-0.5485,-0.5495,-0.551,-0.5532,-0.5546,-0.5566,-0.5604,-0.5608,-0.5621,-0.5625,-0.5629,-0.5633,-0.5655,-0.5661,-0.5595,-0.5594,-0.5594,0,0,-0.5386,-0.5398,-0.5411,-0.5439,-0.545,-0.5472,-0.5456,-0.548,-0.5497,-0.5488,-0.552,-0.5528,-0.5545,-0.558,-0.5596,-0.5588,-0.5652,-0.5632,-0.5635,-0.5637,-0.5658,-0.5664,-0.567,-0.5596,-0.5596,-0.5596,0,0,-0.5426,-0.5437,-0.5464,-0.5476,-0.5493,-0.5498,-0.5504,-0.552,-0.5525,-0.5557,-0.5551,-0.5571,-0.5607,-0.562,-0.5632,-0.5677,-0.5672,-0.5683,-0.5706,-0.5727,-0.5733,-0.5737,-0.5755,-0.5761,-0.5687,-0.5687,-0.5687,0,-0.5444,-0.5477,-0.5478,-0.5503,-0.5516,-0.5509,-0.5536,-0.5548,-0.5571,-0.558,-0.557,-0.5616,-0.5627,-0.5666,-0.5677,-0.5686,-0.5694,-0.5682,-0.5732,-0.5736,-0.5741,-0.5757,-0.5764,-0.5688,-0.5688,-0.5688,-0.5688,0,-0.5499,-0.5522,-0.5541,-0.5564,-0.5579,-0.5605,-0.561,-0.5625,-0.5624,-0.5629,-0.5662,-0.5675,-0.5698,-0.5707,-0.5706,-0.5746,-0.574,-0.5731,-0.5714,-0.5748,-0.5764,-0.577,-0.569,-0.569,-0.5689,-0.5689,0,0,-0.5551,-0.5573,-0.5581,-0.5591,-0.561,-0.5628,-0.5654,-0.5676,-0.5689,-0.5705,-0.5728,-0.5758,-0.575,-0.5763,-0.5763,-0.5782,-0.5818,-0.577,-0.5771,-0.578,-0.5864,-0.5872,-0.588,-0.5814,-0.5816,-0.5816,-0.5863,0,-0.5594,-0.564,-0.5641,-0.5683,-0.5705,-0.5698,-0.5721,-0.5735,-0.5741,-0.5761,-0.5767,-0.579,-0.5776,-0.5784,-0.5802,-0.581,-0.5835,-0.5806,-0.5836,-0.5837,-0.5834,-0.5888,-0.5896,-0.594,-0.5869,-0.587,-0.5871,0,-0.5651,-0.5669,-0.5713,-0.5729,-0.5738,-0.5758,-0.5779,-0.5798,-0.5814,-0.5817,-0.5831,-0.5829,-0.5856,-0.5837,-0.5874,-0.5855,-0.5867,-0.5873,-0.5874,-0.5879,-0.5858,-0.5895,-0.5953,-0.5961,-0.588,-0.588,-0.5879,0,-0.5686,-0.5721,-0.5752,-0.5761,-0.578,-0.5795,-0.5803,-0.5818,-0.5832,-0.585,-0.5859,-0.588,-0.5892,-0.5908,-0.5912,-0.5897,-0.595,-0.5931,-0.5954,-0.5954,-0.5967,-0.5967,-0.603,-0.5972,-0.5972,-0.5972,-0.5972,0,-0.5735,-0.5763,-0.5769,-0.5788,-0.5819,-0.582,-0.5851,-0.5858,-0.5871,-0.5892,-0.5887,-0.5907,-0.591,-0.5931,-0.5934,-0.5965,-0.597,-0.5974,-0.5975,-0.5976,-0.5975,-0.5985,-0.5983,-0.5974,-0.5973,-0.5973,-0.5973,0,-0.5781,-0.5785,-0.5819,-0.5834,-0.5839,-0.5861,-0.5874,-0.5893,-0.5898,-0.5925,-0.5931,-0.5939,-0.5964,-0.5968,-0.5997,-0.5999,-0.6037,-0.6034,-0.6032,-0.6032,-0.6056,-0.6054,-0.6129,-0.6139,-0.6073,-0.6074,-0.6074,0,-0.5813,-0.5834,-0.5851,-0.5865,-0.5874,-0.5896,-0.591,-0.5911,-0.5926,-0.5946,-0.5963,-0.5986,-0.6005,-0.6044,-0.6053,-0.6075,-0.6073,-0.6098,-0.6077,-0.6077,-0.6076,-0.6075,-0.6078,-0.6103,-0.6103,-0.6104,-0.6104,0,-0.5869,-0.587,-0.589,-0.5912,-0.5928,-0.5945,-0.596,-0.5972,-0.5976,-0.5993,-0.6017,-0.6032,-0.6061,-0.6085,-0.6107,-0.6116,-0.6112,-0.6111,-0.6118,-0.612,-0.6118,-0.6121,-0.6045,-0.611,-0.6109,-0.6109,-0.6108,-0.6108,-0.591,-0.5929,-0.5944,-0.5967,-0.5979,-0.5994,-0.6012,-0.602,-0.604,-0.6064,-0.6063,-0.6091,-0.6106,-0.6135,-0.6146,-0.6167,-0.616,-0.6169,-0.6172,-0.6175,-0.6178,-0.6113,-0.6171,-0.6171,-0.6171,-0.6171,-0.6171,0,-0.5968,-0.5977,-0.5998,-0.602,-0.6038,-0.6031,-0.6048,-0.6064,-0.6088,-0.6103,-0.6121,-0.615,-0.6173,-0.6183,-0.6206,-0.6222,-0.622,-0.6228,-0.6228,-0.623,-0.6183,-0.6175,-0.6229,-0.6229,-0.6229,-0.6229,-0.6229,-0.6229,-0.6,-0.6032,-0.6035,-0.6073,-0.6082,-0.6109,-0.6119,-0.6133,-0.6145,-0.6177,-0.6196,-0.6203,-0.6216,-0.624,-0.6261,-0.6263,-0.6273,-0.6282,-0.6283,-0.6239,-0.6233,-0.6228,-0.6221,-0.6283,-0.6283,-0.6329,-0.633,-0.633]},{"header":{"parameterUnit":"m.s-1","parameterCategory":1,"la1":30.2991,"la2":30.254,"lo1":-89.0895,"lo2":-89.0444,"dy":0.0017,"dx":0.0017,"nx":28,"ny":28,"refTime":"2025-09-12T21:00:00:Z","depth":0,"parameterNumber":3,"parameterNumberName":"V-component_of_WINDS"},"data":[0,0,0,0,0,0,0,0,0,0,0,0,0,0,0,0,0,0,0,0,0,0,0,0,0,0,0,0,0,0,0,0,0,0,0,0,0,0,0,0,0,0,0,0,0,0,0,0,0,0,0,0,0,0,0,0,0,0,-2.5753,-2.5753,0,-2.5778,-2.5779,-2.5779,-2.5746,-2.5745,-2.5743,-2.5742,-2.5766,-2.5767,-2.5769,0,0,0,0,0,0,0,0,0,0,0,0,0,-2.5674,-2.5676,-2.5753,-2.5753,-2.5754,-2.5778,-2.5779,-2.5779,-2.5746,-2.5745,-2.5743,-2.5742,-2.5765,-2.5767,-2.5769,0,0,0,0,0,0,0,0,0,0,0,0,0,-2.5705,-2.5676,-2.5753,-2.574,-2.5739,-2.5778,-2.5779,-2.5779,-2.5746,-2.5745,-2.5743,-2.5741,-2.5764,-2.5767,-2.5769,-2.5821,0,0,-2.5777,-2.5779,0,0,0,0,0,0,0,0,-2.5703,-2.5708,-2.5742,-2.5741,-2.574,-2.5757,-2.5759,-2.5793,-2.5747,-2.5744,-2.5742,-2.574,-2.5764,-2.5767,-2.5775,-2.5822,-2.5823,-2.5778,-2.5779,-2.578,-2.5781,0,0,0,0,0,0,0,-2.5701,-2.5706,-2.5763,-2.5742,-2.5741,-2.5733,-2.5735,-2.5766,-2.5763,-2.5744,-2.5741,-2.5745,-2.5763,-2.5773,-2.5775,-2.5824,-2.5778,-2.578,-2.5781,-2.5782,-2.5916,-2.5918,0,0,0,0,0,0,-2.5701,-2.5705,-2.5762,-2.5764,-2.5717,-2.5736,-2.5738,-2.5754,-2.5763,-2.5763,-2.5747,-2.5743,-2.5769,-2.5772,-2.5776,-2.5839,-2.578,-2.5783,-2.5784,-2.5914,-2.5917,-2.5919,0,0,0,0,0,0,-2.5699,-2.5706,-2.5761,-2.5734,-2.574,-2.5739,-2.5756,-2.5755,-2.5764,-2.5765,-2.5764,-2.5757,-2.5768,-2.5773,-2.5811,-2.5839,-2.5784,-2.5786,-2.5912,-2.5915,-2.5918,-2.5964,0,0,0,0,0,0,-2.5697,-2.5706,-2.5726,-2.5734,-2.5742,-2.5796,-2.5758,-2.5757,-2.5769,-2.5765,-2.5775,-2.5774,-2.5767,-2.5807,-2.5813,-2.5842,-2.5788,-2.5909,-2.5913,-2.5917,-2.596,-2.5968,-2.5975,0,0,0,0,0,-2.5694,-2.5737,-2.5727,-2.5734,-2.5767,-2.5798,-2.5802,-2.5793,-2.5772,-2.5792,-2.5792,-2.5774,-2.5835,-2.5811,-2.5818,-2.5848,-2.5908,-2.5912,-2.5917,-2.5957,-2.5967,-2.5975,0,0,0,0,0,0,-2.573,-2.5737,-2.5727,-2.5773,-2.5785,-2.5792,-2.5817,-2.5804,-2.5821,-2.5817,-2.5804,-2.5807,-2.5848,-2.5851,-2.5825,-2.5899,-2.5868,-2.5874,-2.5896,-2.5905,-2.5913,-2.5912,-2.579,0,0,0,0,0,-2.5743,-2.5769,-2.5773,-2.5814,-2.5821,-2.5818,-2.5831,-2.5824,-2.5835,-2.584,-2.5843,-2.5854,-2.5876,-2.5891,-2.591,-2.596,-2.5962,-2.5984,-2.5991,-2.5998,-2.6003,-2.6031,-2.6041,-2.5934,-2.5934,-2.5934,0,0,-2.5771,-2.5778,-2.5795,-2.5822,-2.583,-2.5856,-2.5822,-2.5851,-2.5871,-2.5844,-2.5881,-2.5884,-2.5896,-2.594,-2.596,-2.5944,-2.6034,-2.6003,-2.6008,-2.6011,-2.6037,-2.6047,-2.6056,-2.5937,-2.5936,-2.5936,0,0,-2.5835,-2.5843,-2.5879,-2.5888,-2.5902,-2.59,-2.5909,-2.5918,-2.592,-2.5957,-2.5938,-2.596,-2.5997,-2.6007,-2.6017,-2.6087,-2.6071,-2.6094,-2.6134,-2.6161,-2.617,-2.6177,-2.6204,-2.6213,-2.6099,-2.6099,-2.6099,0,-2.5868,-2.5907,-2.5898,-2.5929,-2.5942,-2.592,-2.5957,-2.5966,-2.5985,-2.5994,-2.5976,-2.6024,-2.603,-2.6078,-2.6095,-2.6103,-2.6113,-2.6093,-2.617,-2.6177,-2.6184,-2.6209,-2.6219,-2.6102,-2.6102,-2.6101,-2.6101,0,-2.5947,-2.5975,-2.6002,-2.6024,-2.6039,-2.6072,-2.6068,-2.6085,-2.6076,-2.6076,-2.6115,-2.6122,-2.6144,-2.6154,-2.6145,-2.6201,-2.6191,-2.6172,-2.614,-2.6197,-2.622,-2.623,-2.6106,-2.6105,-2.6104,-2.6103,0,0,-2.6034,-2.6052,-2.6062,-2.6072,-2.6086,-2.6107,-2.614,-2.6162,-2.6178,-2.6191,-2.6219,-2.6252,-2.6235,-2.6246,-2.6238,-2.6262,-2.6319,-2.6239,-2.624,-2.6255,-2.6382,-2.6398,-2.6409,-2.6308,-2.631,-2.6311,-2.6382,0,-2.61,-2.6158,-2.6152,-2.6207,-2.6233,-2.6213,-2.6242,-2.6253,-2.6254,-2.6276,-2.6277,-2.6301,-2.6276,-2.6283,-2.6305,-2.6307,-2.6344,-2.6301,-2.6334,-2.6335,-2.6333,-2.6421,-2.6437,-2.6504,-2.6391,-2.6392,-2.6393,0,-2.6184,-2.6204,-2.6262,-2.6274,-2.6285,-2.6311,-2.6332,-2.6353,-2.6366,-2.6365,-2.6379,-2.6367,-2.64,-2.6367,-2.6412,-2.6383,-2.6396,-2.6399,-2.6401,-2.6405,-2.6368,-2.6428,-2.6524,-2.6535,-2.6407,-2.6406,-2.6405,0,-2.6244,-2.6284,-2.6325,-2.6334,-2.6349,-2.6368,-2.6374,-2.6386,-2.64,-2.6418,-2.6428,-2.6449,-2.6461,-2.6477,-2.6471,-2.6448,-2.6518,-2.6485,-2.6519,-2.6519,-2.6535,-2.6535,-2.6636,-2.6541,-2.6541,-2.6541,-2.6541,0,-2.6319,-2.6356,-2.6353,-2.6378,-2.6419,-2.641,-2.6451,-2.6455,-2.6466,-2.6491,-2.6474,-2.6498,-2.6489,-2.6512,-2.6507,-2.6546,-2.6551,-2.6552,-2.655,-2.6554,-2.6554,-2.6563,-2.6559,-2.6544,-2.6543,-2.6543,-2.6542,0,-2.6393,-2.6392,-2.6436,-2.6447,-2.645,-2.648,-2.6489,-2.6513,-2.6513,-2.6545,-2.6552,-2.6552,-2.6579,-2.6575,-2.6604,-2.6601,-2.665,-2.6642,-2.6647,-2.6645,-2.6681,-2.6678,-2.6792,-2.6808,-2.6702,-2.6703,-2.6703,0,-2.6442,-2.647,-2.6485,-2.6501,-2.651,-2.6537,-2.6552,-2.6545,-2.6562,-2.658,-2.6601,-2.6627,-2.6647,-2.6691,-2.6693,-2.6716,-2.6709,-2.6748,-2.6712,-2.6716,-2.6712,-2.6711,-2.6714,-2.6755,-2.6756,-2.6757,-2.6758,0,-2.6528,-2.6527,-2.6551,-2.6575,-2.6594,-2.6612,-2.6629,-2.6643,-2.6637,-2.6657,-2.6685,-2.6701,-2.6732,-2.6758,-2.678,-2.6786,-2.6772,-2.6769,-2.6779,-2.6784,-2.6786,-2.6787,-2.6667,-2.6767,-2.6766,-2.6765,-2.6765,-2.6765,-2.6592,-2.6617,-2.6632,-2.6659,-2.6671,-2.6688,-2.6711,-2.6715,-2.6739,-2.6765,-2.6758,-2.6791,-2.6804,-2.6832,-2.684,-2.6865,-2.6851,-2.6864,-2.6867,-2.6871,-2.6876,-2.6781,-2.6869,-2.6868,-2.6868,-2.6868,-2.6868,0,-2.668,-2.6689,-2.6714,-2.6739,-2.676,-2.6746,-2.6763,-2.6782,-2.6812,-2.6825,-2.6847,-2.688,-2.6905,-2.691,-2.6934,-2.6953,-2.6947,-2.696,-2.6959,-2.6961,-2.6887,-2.6877,-2.6964,-2.6964,-2.6964,-2.6964,-2.6964,-2.6964,-2.6728,-2.677,-2.6771,-2.6819,-2.6827,-2.686,-2.6871,-2.6886,-2.6898,-2.6936,-2.6958,-2.6961,-2.6972,-2.6997,-2.702,-2.702,-2.7031,-2.7046,-2.7045,-2.6976,-2.6966,-2.6957,-2.6948,-2.7048,-2.7048,-2.7117,-2.7117,-2.7118]}]]